User: anonymous   Login
Location: Caltech
(34.1382°N, 118.1253°W)
Time: 05:38:35
(UTC-08:00)
Language:

Cosmos 44 Rocket - Orbit

View from above orbital plane
View from above orbital plane
View from above satellite
View from above satellite

Ground track
Ground track

The orbit data is extracted from the following two-line orbital elements,

1 00877U 64053B   14352.58739837  .00000520  00000-0  10843-3 0  8147
2 00877 065.0793 075.4973 0051030 115.0040 245.6855 14.58984041668503
Epoch (UTC): 18 December 2014 14:05:51
Eccentricity: 0.0051030
inclination: 65.0793°
perigee height: 660 km
apogee height: 732 km
right ascension of ascending node: 75.4973°
argument of perigee: 115.0040°
revolutions per day: 14.58984041
mean anomaly at epoch: 245.6855°
orbit number at epoch: 66850

The dashed part of the orbit path shows where the satellite is in the earth's shadow,  

DLR